Location: Newark
(35.8833°N, 14.5000°E)
Time: 15:55:16
(UTC+00:00)

UNISAT 6 - Pass Details

Date: 28 May 2019
Orbit: 606 x 690 km, 97.8° (Epoch: 19 June)

Event Time Altitude Azimuth Distance (km) Brightness Sun altitude
Rises 18:58:25 0° 32° (NNE) 2,892 ? -9.2°
Reaches altitude 10° 19:01:20 10° 53° (NE) 1,971 ? -9.7°
Maximum altitude 19:04:05 17° 93° (E) 1,570 ? -10.1°
Enters shadow 19:05:39 14° 119° (ESE) 1,704 ? -10.4°
